Вернуться в каталог

STARLINK-31031

АктивенСвязьVLEO
NORAD 58711·PAYLOAD·🇺🇸 United States

Запущен Jan 3, 2024 с Vandenberg Space Force Base

Loading…

Ближайшие Пролёты (ближайшие 24 часа)

TLE

СвежийSource: CelesTrak SupGP

Эпоха: Sep 15, 2026, 02:03 UTC

1 58711C 24002G   26258.08590278 -.00025064  00000+0 -74057-3 0  2584
2 58711  53.1574  66.6885 0001092  89.6008 229.7287 15.34401789    11

Отслеживайте STARLINK-31031 в реальном времени с AllMySat

Download on the App Store